Regional Weather Roundup
Issued by NWS

Home | Current Version | Previous Version | Graphics & Text | Print | Product List | Glossary On
Versions: 1 2 3 4 5 6 7 8 9 10 11 12 13 14 15 16 17 18 19 20 21 22 23 24 25 26 27 28 29 30 31 32 33 34 35 36 37 38 39 40 41 42 43 44 45 46 47 48 49 50
000
ASUS43 KIND 251059
RWRIN

WEATHER ROUNDUP FOR INDIANA
NATIONAL WEATHER SERVICE INDIANAPOLIS IN
700 AM EDT SAT APR 25 2015

NOTE: "FAIR" INDICATES FEW OR NO CLOUDS BELOW 12,000 FEET WITH NO
SIGNIFICANT WEATHER AND/OR OBSTRUCTIONS TO VISIBILITY.

* - STATION DOES NOT REPORT WEATHER SUCH AS PRECIPITATION OR FOG.

+ - STATION NOT QUALITY CONTROLLED BY THE NATIONAL WEATHER SERVICE.
    USE DATA WITH CAUTION...ESPECIALLY DEWPOINT AND RELATIVE
    HUMIDITY OBSERVATIONS.

INZ001>003-010>013-019-020-251200-
NORTHWEST INDIANA

CITY           SKY/WX    TMP DP  RH WIND       PRES   REMARKS
GARY /AIRPORT/ CLOUDY    46  36  66 E14G28    29.80S
KNOX *+        CLOUDY    43  30  61 E20       29.78F
RENSSELAER +   LGT RAIN  45  43  93 E14       29.76S

$$

LMZ046-743>745-251200-
SOUTHERN LAKE MICHIGAN

STATION/POSITION TIME  TEMP    WIND        PRES    WAVE
                       AIR SEA DIR/SP/G            HT
                 (UTC) (F)     (DEG/KT/KT) (MB)    (FT)
BURNS HARBOR     1000   46     100/ 15/ 20 1009.1F
MICHIGAN CITY    1000   44      70/ 14/ 16   N/A
5NW MICH CITY    1000   45 44  120/ 16/ 19   N/A     2

$$

INZ004-005-014>016-021>024-251200-
NORTH CENTRAL INDIANA

CITY           SKY/WX    TMP DP  RH WIND       PRES   REMARKS
GOSHEN         CLOUDY    42  37  82 E13       29.85R
SOUTH BEND     CLOUDY    45  37  73 E10G21    29.84F
WARSAW +       MOCLDY    41  36  81 E10       29.84S

$$

INZ006>009-017-018-025>027-251200-
NORTHEAST INDIANA

CITY           SKY/WX    TMP DP  RH WIND       PRES   REMARKS
ANGOLA *+      CLOUDY    39  36  87 E10       29.87R
FORT WAYNE     MOCLDY    41  35  79 E17       29.85R

$$

INZ028-029-035-036-043>045-051>053-251200-
WEST CENTRAL INDIANA

CITY           SKY/WX    TMP DP  RH WIND       PRES   REMARKS
CRAWFORDSVL +  FLURRIES  46  41  82 SE13      29.75S
GREENCASTLE +  CLOUDY    46  41  81 E9        29.74F
LAFAYETTE      CLOUDY    47  44  90 E10       29.74F
TERRE HAUTE    CLOUDY    50  46  86 E7        29.72F

$$

INZ030>032-037>040-046>048-054>057-064-065-251200-
CENTRAL INDIANA

CITY           SKY/WX    TMP DP  RH WIND       PRES   REMARKS
COLUMBUS       CLOUDY    48  45  87 MISG      29.77
FRANKFORT +    LGT RAIN  48  44  84 E10       29.79S
GREENWOOD *+   CLOUDY    48  43  81 E6        29.78S
INDIANAPOLIS   LGT RAIN  49  44  83 E12       29.75S
-EAGLE CREEK   LGT RAIN  49  43  80 SE8       29.76F
KOKOMO *+      CLOUDY    46  39  76 E8        29.80S
MT COMFORT *+  CLOUDY    48  37  66 SE10      29.78F
SHELBYVILLE    CLOUDY    50  43  77 E13       29.77F

$$

INZ033-034-041-042-049-050-058-059-251200-
EAST CENTRAL INDIANA

CITY           SKY/WX    TMP DP  RH WIND       PRES   REMARKS
MUNCIE         CLOUDY    51  33  50 SE12      29.79F

$$

INZ060-061-067>069-081>083-085>088-251200-
SOUTHWEST INDIANA

CITY           SKY/WX    TMP DP  RH WIND       PRES   REMARKS
EVANSVILLE     LGT RAIN  53  50  89 E6        29.68F FOG
HUNTINGBURG *+ CLOUDY    52  45  76 E8        29.70F

$$

INZ062-063-066-070>080-084-089>092-251200-
SOUTH CENTRAL AND SOUTHEAST INDIANA

CITY           SKY/WX    TMP DP  RH WIND       PRES   REMARKS
BLOOMINGTON    CLOUDY    50  46  86 SE8       29.74S
MADISON *+     CLOUDY    48  41  76 E8        29.80F
SEYMOUR +      CLOUDY    52  45  76 E8        29.77F

$$



USA.gov is the U.S. government's official web portal to all federal, state and local government web resources and services.